This is the latest recevied weather packets stored in our database for station/object W8LMG. If no packets are shown the sender has not sent any weather packets the latest 1 day(s).
| Time | Temp. | Humidity | Pressure | Rain* | Wind** | Luminosity | Snow |
|---|---|---|---|---|---|---|---|
| 1778069196 | 12.22° C | 99% | 1011 hPa | 1.27 mm | - | 11 W/m² | - |
| 1778068591 | 12.22° C | 99% | 1011.2 hPa | 0 mm | - | 11 W/m² | - |
| 1778068289 | 12.22° C | 99% | 1011.2 hPa | 1.78 mm | - | 15 W/m² | - |
| 1778067986 | 12.22° C | 99% | 1011.3 hPa | 3.05 mm | - | 8 W/m² | - |
| 1778067684 | 12.22° C | 99% | 1011.2 hPa | 3.05 mm | - | 6 W/m² | - |
| 1778067382 | 12.22° C | 99% | 1011 hPa | 4.83 mm | - | 7 W/m² | - |
| 1778067079 | 12.22° C | 99% | 1011 hPa | 3.05 mm | - | 6 W/m² | - |
| 1778066775 | 12.22° C | 99% | 1011.2 hPa | 3.05 mm | - | 6 W/m² | - |
| 1778066473 | 12.22° C | 99% | 1010.9 hPa | 3.05 mm | - | 7 W/m² | - |
| 1778065565 | 11.67° C | 99% | 1010.9 hPa | 1.78 mm | - | 3 W/m² | - |
| 1778064354 | 11.67° C | 99% | 1010.6 hPa | 0 mm | - | 2 W/m² | - |
| 1778064051 | 11.67° C | 99% | 1010.6 hPa | 0 mm | - | 2 W/m² | - |
| 1778062537 | 11.67° C | 99% | 1010.5 hPa | 1.78 mm | - | 0 W/m² | - |
| 1778062234 | 11.67° C | 99% | 1010.3 hPa | 0 mm | - | 0 W/m² | - |
| 1778061630 | 11.67° C | 99% | 1010.5 hPa | 0 mm | - | 0 W/m² | - |
| 1778060420 | 11.67° C | 98% | 1010.9 hPa | 6.6 mm | - | 0 W/m² | - |
| 1778060118 | 11.67° C | 97% | 1011 hPa | 6.1 mm | - | 0 W/m² | - |
| 1778059815 | 11.67° C | 97% | 1010.9 hPa | 4.83 mm | - | 0 W/m² | - |
| 1778059209 | 12.22° C | 96% | 1011.2 hPa | 3.05 mm | - | 0 W/m² | - |
| 1778058908 | 12.22° C | 94% | 1011.2 hPa | 3.05 mm | - | 0 W/m² | - |
| 1778058303 | 12.22° C | 92% | 1011 hPa | 0 mm | - | 0 W/m² | - |
| 1778057392 | 12.78° C | 90% | 1010.8 hPa | 0 mm | - | 0 W/m² | - |
| 1778057089 | 12.78° C | 88% | 1010.8 hPa | 0 mm | - | 0 W/m² | - |
| 1778056785 | 12.78° C | 88% | 1010.7 hPa | 0 mm | - | 0 W/m² | - |
| 1778055876 | 12.78° C | 87% | 1010.6 hPa | 0 mm | - | 0 W/m² | - |
* Rain latest hour (hover to see other rain measurements)
** Current wind speed in m/s (hover to see current wind gust speed)